Location: Saluda
(35.2377°N, 82.3468°W)
Time: 15:41:17
(UTC+00:00)

SR - Pass Details

Date: 12 October 2022
Orbit: 577 x 875 km, 66.7° (Epoch: 28 November)

Event Time Altitude Azimuth Distance (km) Brightness Sun altitude
Rises 09:32:11 0° 329° (NNW) 3,236 - -25.4°
Reaches altitude 10° 09:34:41 10° 327° (NNW) 2,257 - -24.9°
Maximum altitude 09:39:45 64° 247° (WSW) 771 - -23.9°
Exits shadow 09:40:41 52° 197° (SSW) 854 ? -23.7°
Drops below altitude 10° 09:44:21 10° 166° (SSE) 2,053 ? -23.0°
Sets 09:46:33 0° 163° (SSE) 2,918 ? -22.5°
